STARLINK-1609 (47621 NORAD) Tracking and Keplerian Element Data

This shows tracking and keplerian element data for the satellite.

Feedback or suggestion? Click here.




ElementValue
Catalog47621
NameSTARLINK-1609
Epoch Orbit183
Epoch Day56.91667824
Epoch Year2021
RAAN53.6644
Inclination53.049
Eccentricity0.0001147
Argument of Perigee65.1738
Mean Anonmoly27.462
Mean Motion15.79542611
Decay Rate-0.01069117
L11 47621U 21012B 21056.91667824 -.01069117 00000-0 -63901-2 0 9991
L22 47621 53.0490 53.6644 0001147 65.1738 27.4620 15.79542611 1838

Live tracking and technical data element details for STARLINK-1609 (NORAD 47621). STARLINK-1609 can be tracked NOW for your location showing map with azimuth and elevation plus other details from your city location.

Track the satellite on the map from your city or location and see movement details for azimuth, elevation, latitude, longitude, range, height, and movement on the map or in text.







IsCatalogInMostPopularTable: catalog: 47621, numindb: 1
Update: records affected: 1



GetName: 47621 STARLINK-1609

Hit Count: updated at: Fri, 26 Feb 2021 09:16:53 GMT